This demonstration page uses our WeatherBlox Daily Observations layout. Learn more.

Left ArrowRight Arrow

Hourly Observations for February 17, 2017

Temp ( °F °C ) Dew Point ( °F °C ) Humidity (%) Winds ( mph kmh ) Pressure ( in mb ) Visibility ( mi km ) Precip ( " mm )
12:53 am 00:53 Partly Cloudy 36 2.2 22 -5.6 57 57 E 5 7 29.89 1012 10 16 N/A
1:53 am 01:53 Clear 39 3.9 22 -5.6 50 50 N N/A 29.85 1011 10 16 N/A
2:53 am 02:53 Clear 39 3.9 23 -5 53 53 ESE 3 6 29.84 1011 10 16 N/A
3:53 am 03:53 Clear 39 3.9 24 -4.4 55 55 SSE 3 6 29.82 1010 10 16 N/A
4:53 am 04:53 Clear 32 undefined 25 -3.9 75 75 N N/A 29.83 1010 10 16 N/A
5:53 am 05:53 Clear 32 undefined 25 -3.9 75 75 E 3 6 29.83 1010 10 16 N/A
6:53 am 06:53 Clear 30 -1.1 24 -4.4 79 79 ENE 3 6 29.84 1011 10 16 N/A
7:53 am 07:53 Sunny 30 -1.1 24 -4.4 79 79 N N/A 29.86 1011 10 16 N/A
8:53 am 08:53 Sunny 47 8.3 31 -0.6 54 54 SW 5 7 29.85 1011 10 16 N/A
9:53 am 09:53 Sunny 50 10 32 undefined 50 50 WSW 10 17 29.86 1011 10 16 N/A
10:53 am 10:53 Sunny 55 12.8 33 0.6 44 44 VRB 6 9 29.85 1011 10 16 N/A
11:53 am 11:53 Sunny 60 15.6 34 1.1 38 38 SW 9 15 29.84 1011 10 16 N/A
12:53 pm 12:53 Sunny 63 17.2 35 1.7 35 35 SSW 10 17 29.82 1010 10 16 N/A
1:53 pm 13:53 Sunny 66 18.9 35 1.7 32 32 SW 9 15 29.80 1009 10 16 N/A
2:53 pm 14:53 Sunny 68 20 36 2.2 31 31 SW 8 13 29.78 1009 10 16 N/A
3:53 pm 15:53 Sunny 68 20 36 2.2 31 31 SW 9 15 29.78 1009 10 16 N/A
4:53 pm 16:53 Sunny 67 19.4 35 1.7 31 31 SW 12 19 29.79 1009 10 16 N/A
5:53 pm 17:53 Sunny 65 18.3 35 1.7 33 33 SW 8 13 29.80 1009 10 16 N/A
6:53 pm 18:53 Clear 60 15.6 35 1.7 39 39 SSW 3 6 29.82 1010 10 16 N/A
7:53 pm 19:53 Clear 47 8.3 35 1.7 63 63 N N/A 29.83 1010 10 16 N/A
8:53 pm 20:53 Clear 47 8.3 34 1.1 61 61 SSW 3 6 29.84 1010 10 16 N/A
9:53 pm 21:53 Clear 44 6.7 34 1.1 68 68 N N/A 29.85 1011 10 16 N/A
10:53 pm 22:53 Clear 41 5 33 0.6 73 73 N N/A 29.85 1011 10 16 N/A
11:53 pm 23:53 Clear 36 2.2 31 -0.6 82 82 N N/A 29.85 1011 10 16 N/A

Powered by AerisWeather